Location: Gandikunta
(16.3784°N, 80.8378°E)
Time: 20:59:17
(UTC+00:00)

SWIFT - Pass Details

Date: 19 May 2025
Orbit: 446 x 454 km, 20.6° (Epoch: 18 June)

Event Time Altitude Azimuth Distance (km) Brightness Sun altitude
Exits shadow 22:09:36 22° 110° (ESE) 1,003 4.0 -25.6°
Drops below altitude 10° 22:11:14 10° 93° (E) 1,554 5.3 -25.3°
Sets 22:13:31 0° 85° (E) 2,426 6.6 -24.8°
